| time (UTC) | temp F | wind direction | speed knots | gust knots | rain 1hr in | rain 24hr in | rain mn in | humidity % | barometer mb |
| 20260506222523 | 56 | 204 | 5.2 | 11.3 | 0.00 | 0.00 | 0.00 | 81 | 1020.6 |
| 20260506221531 | 57 | 199 | 3.5 | 13.0 | 0.00 | 0.00 | 0.00 | 81 | 1020.7 |
| 20260506220522 | 56 | 211 | 4.3 | 13.0 | 0.00 | 0.00 | 0.00 | 81 | 1020.6 |
| 20260506215611 | 57 | 189 | 7.0 | 17.4 | 0.00 | 0.00 | 0.00 | 81 | 1020.6 |
| 20260506214523 | 57 | 214 | 6.1 | 17.4 | 0.00 | 0.00 | 0.00 | 78 | 1020.6 |
| 20260506213645 | 55 | 0.0 | 0.0 | 0.00 | 0.00 | 0.00 | 85 | 1016.7 | |
| 20260506213604 | 57 | 222 | 5.2 | 17.4 | 0.00 | 0.00 | 0.00 | 78 | 1020.5 |
| 20260506212524 | 57 | 204 | 7.0 | 15.6 | 0.00 | 0.00 | 0.00 | 79 | 1020.6 |
| 20260506211531 | 57 | 209 | 7.0 | 15.6 | 0.00 | 0.00 | 0.00 | 78 | 1020.5 |
| 20260506210522 | 58 | 249 | 7.0 | 17.4 | 0.00 | 0.00 | 0.00 | 76 | 1020.5 |
| 20260506205532 | 58 | 221 | 4.3 | 11.3 | 0.00 | 0.00 | 0.00 | 77 | 1020.4 |
| 20260506204524 | 58 | 203 | 8.7 | 21.7 | 0.00 | 0.00 | 0.00 | 78 | 1020.3 |
| 20260506203647 | 55 | 0.0 | 0.0 | 0.00 | 0.00 | 0.00 | 85 | 1016.7 | |
| 20260506203551 | 58 | 196 | 5.2 | 15.6 | 0.00 | 0.00 | 0.00 | 77 | 1020.2 |
| 20260506202523 | 58 | 209 | 7.8 | 20.0 | 0.00 | 0.00 | 0.00 | 77 | 1020.2 |
| 20260506201532 | 58 | 215 | 7.0 | 20.0 | 0.00 | 0.00 | 0.00 | 76 | 1020.2 |
| 20260506200523 | 58 | 199 | 7.8 | 15.6 | 0.00 | 0.00 | 0.00 | 77 | 1020.1 |
| 20260506195530 | 58 | 212 | 4.3 | 11.3 | 0.00 | 0.00 | 0.00 | 76 | 1020.2 |
| 20260506194524 | 58 | 217 | 7.0 | 20.0 | 0.00 | 0.00 | 0.00 | 76 | 1020.0 |
| 20260506193645 | 55 | 0.0 | 0.0 | 0.00 | 0.00 | 0.00 | 85 | 1016.7 | |
| 20260506193531 | 59 | 206 | 6.1 | 15.6 | 0.00 | 0.00 | 0.00 | 75 | 1020.1 |
| 20260506192523 | 58 | 229 | 4.3 | 13.0 | 0.00 | 0.00 | 0.00 | 76 | 1020.0 |
| 20260506191532 | 58 | 207 | 6.1 | 24.3 | 0.00 | 0.00 | 0.00 | 76 | 1020.1 |
| 20260506190544 | 58 | 203 | 7.8 | 15.6 | 0.00 | 0.00 | 0.00 | 76 | 1020.1 |
| 20260506185531 | 58 | 202 | 7.0 | 13.0 | 0.00 | 0.00 | 0.00 | 75 | 1020.1 |
| 20260506184522 | 59 | 232 | 3.5 | 11.3 | 0.00 | 0.00 | 0.00 | 74 | 1019.9 |
| 20260506183645 | 55 | 0.0 | 0.0 | 0.00 | 0.00 | 0.00 | 85 | 1016.7 | |
| 20260506183604 | 59 | 256 | 6.1 | 17.4 | 0.00 | 0.00 | 0.00 | 74 | 1020.0 |
| 20260506182523 | 59 | 195 | 5.2 | 13.0 | 0.00 | 0.00 | 0.00 | 75 | 1020.0 |
| 20260506181532 | 59 | 190 | 6.1 | 15.6 | 0.00 | 0.00 | 0.00 | 75 | 1019.9 |
| 20260506180524 | 59 | 236 | 3.5 | 8.7 | 0.00 | 0.00 | 0.00 | 74 | 1019.9 |
| 20260506175531 | 58 | 178 | 4.3 | 8.7 | 0.00 | 0.00 | 0.00 | 75 | 1019.8 |
| 20260506174522 | 59 | 204 | 4.3 | 13.0 | 0.00 | 0.00 | 0.00 | 75 | 1019.7 |
| 20260506173531 | 59 | 213 | 1.7 | 7.0 | 0.00 | 0.00 | 0.00 | 75 | 1019.8 |
| 20260506172523 | 58 | 200 | 5.2 | 13.0 | 0.00 | 0.00 | 0.00 | 77 | 1019.7 |
| 20260506171530 | 57 | 231 | 2.6 | 8.7 | 0.00 | 0.00 | 0.00 | 77 | 1019.9 |
| 20260506170524 | 57 | 192 | 4.3 | 11.3 | 0.00 | 0.00 | 0.00 | 78 | 1019.7 |
| 20260506165531 | 57 | 187 | 5.2 | 11.3 | 0.00 | 0.00 | 0.00 | 78 | 1019.8 |
| 20260506164523 | 57 | 247 | 2.6 | 8.7 | 0.00 | 0.00 | 0.00 | 78 | 1019.9 |
| 20260506163648 | 55 | 0.0 | 0.0 | 0.00 | 0.00 | 0.00 | 85 | 1016.7 | |
| 20260506163532 | 57 | 241 | 2.6 | 11.3 | 0.00 | 0.00 | 0.00 | 78 | 1020.0 |
| 20260506162523 | 57 | 200 | 3.5 | 8.7 | 0.00 | 0.00 | 0.00 | 79 | 1019.9 |
| 20260506161551 | 57 | 255 | 3.5 | 7.0 | 0.00 | 0.00 | 0.00 | 78 | 1019.9 |
| 20260506160524 | 56 | 270 | 8.7 | 20.0 | 0.00 | 0.00 | 0.00 | 79 | 1019.8 |
| 20260506155532 | 57 | 285 | 3.5 | 15.6 | 0.00 | 0.00 | 0.00 | 79 | 1019.9 |
| 20260506154523 | 56 | 203 | 0.9 | 4.3 | 0.00 | 0.00 | 0.00 | 80 | 1019.7 |
| 20260506153646 | 55 | 0.0 | 0.0 | 0.00 | 0.00 | 0.00 | 85 | 1016.7 | |
| 20260506153551 | 56 | 217 | 1.7 | 4.3 | 0.00 | 0.00 | 0.00 | 80 | 1019.6 |
| 20260506152524 | 55 | 260 | 3.5 | 11.3 | 0.00 | 0.00 | 0.00 | 82 | 1019.6 |
| 20260506151532 | 55 | 210 | 0.9 | 4.3 | 0.00 | 0.00 | 0.00 | 82 | 1019.3 |
| 20260506150523 | 55 | 275 | 4.3 | 11.3 | 0.00 | 0.00 | 0.00 | 82 | 1019.3 |
| 20260506145532 | 54 | 273 | 3.5 | 8.7 | 0.00 | 0.00 | 0.00 | 83 | 1019.3 |
| 20260506144524 | 54 | 264 | 4.3 | 8.7 | 0.00 | 0.00 | 0.00 | 83 | 1019.2 |
| 20260506143645 | 55 | 0.0 | 0.0 | 0.00 | 0.00 | 0.00 | 85 | 1016.7 | |
| 20260506143551 | 54 | 258 | 2.6 | 7.0 | 0.00 | 0.00 | 0.00 | 83 | 1019.2 |
| 20260506142544 | 54 | 265 | 5.2 | 13.0 | 0.00 | 0.00 | 0.00 | 83 | 1019.3 |
| 20260506141532 | 54 | 262 | 3.5 | 8.7 | 0.00 | 0.00 | 0.00 | 84 | 1019.1 |
| 20260506140523 | 54 | 265 | 5.2 | 13.0 | 0.00 | 0.00 | 0.00 | 84 | 1019.3 |
| 20260506135551 | 54 | 262 | 4.3 | 15.6 | 0.00 | 0.00 | 0.00 | 84 | 1019.0 |
| 20260506134524 | 54 | 270 | 5.2 | 13.0 | 0.00 | 0.00 | 0.00 | 84 | 1018.9 |
| 20260506133647 | 55 | 0.0 | 0.0 | 0.00 | 0.00 | 0.00 | 85 | 1016.7 | |
| 20260506133531 | 54 | 266 | 6.1 | 13.0 | 0.00 | 0.00 | 0.00 | 85 | 1018.8 |
| 20260506132522 | 53 | 267 | 2.6 | 7.0 | 0.00 | 0.00 | 0.00 | 86 | 1018.7 |
| 20260506131532 | 53 | 276 | 2.6 | 7.0 | 0.00 | 0.00 | 0.00 | 86 | 1018.8 |
| 20260506130603 | 53 | 264 | 2.6 | 8.7 | 0.00 | 0.00 | 0.00 | 87 | 1018.7 |
| 20260506125531 | 53 | 263 | 0.0 | 2.6 | 0.00 | 0.00 | 0.00 | 87 | 1018.7 |
| 20260506124524 | 53 | 258 | 0.9 | 7.0 | 0.00 | 0.00 | 0.00 | 87 | 1018.7 |
| 20260506123645 | 55 | 0.0 | 0.0 | 0.00 | 0.00 | 0.00 | 85 | 1016.7 | |
| 20260506123531 | 53 | 266 | 1.7 | 7.0 | 0.00 | 0.00 | 0.00 | 87 | 1018.7 |
| 20260506122523 | 53 | 267 | 3.5 | 8.7 | 0.00 | 0.00 | 0.00 | 87 | 1018.5 |
| 20260506121532 | 53 | 269 | 3.5 | 8.7 | 0.00 | 0.00 | 0.00 | 88 | 1018.4 |
| 20260506120524 | 53 | 269 | 0.9 | 7.0 | 0.00 | 0.00 | 0.00 | 87 | 1018.3 |
| 20260506115531 | 53 | 268 | 1.7 | 4.3 | 0.00 | 0.00 | 0.00 | 87 | 1018.2 |
| 20260506114523 | 53 | 274 | 2.6 | 7.0 | 0.00 | 0.00 | 0.00 | 87 | 1018.3 |
| 20260506113647 | 55 | 0.0 | 0.0 | 0.00 | 0.00 | 0.00 | 85 | 1016.7 | |
| 20260506113544 | 53 | 267 | 2.6 | 7.0 | 0.00 | 0.00 | 0.00 | 88 | 1018.2 |
| 20260506112524 | 53 | 259 | 0.9 | 2.6 | 0.00 | 0.00 | 0.00 | 87 | 1018.1 |
| 20260506111531 | 53 | 255 | 0.9 | 4.3 | 0.00 | 0.00 | 0.00 | 87 | 1018.0 |
| 20260506110524 | 53 | 260 | 1.7 | 4.3 | 0.00 | 0.00 | 0.00 | 87 | 1017.9 |
| 20260506105532 | 53 | 256 | 0.9 | 7.0 | 0.00 | 0.00 | 0.00 | 88 | 1017.7 |
| 20260506104523 | 53 | 211 | 0.0 | 2.6 | 0.00 | 0.00 | 0.00 | 88 | 1017.5 |
| 20260506103645 | 55 | 0.0 | 0.0 | 0.00 | 0.00 | 0.00 | 85 | 1016.7 | |
| 20260506103632 | 54 | 259 | 0.0 | 2.6 | 0.00 | 0.00 | 0.00 | 87 | 1017.3 |
| 20260506102540 | 53 | 270 | 1.7 | 2.6 | 0.00 | 0.00 | 0.00 | 88 | 1017.2 |
| 20260506101531 | 53 | 264 | 0.0 | 2.6 | 0.00 | 0.00 | 0.00 | 88 | 1017.2 |
| 20260506100523 | 54 | 0.0 | 0.0 | 0.00 | 0.00 | 0.00 | 87 | 1017.1 | |
| 20260506095532 | 54 | 264 | 0.0 | 2.6 | 0.00 | 0.00 | 0.00 | 86 | 1017.1 |
| 20260506094543 | 54 | 303 | 0.0 | 2.6 | 0.00 | 0.00 | 0.00 | 86 | 1017.1 |
| 20260506093644 | 55 | 0.0 | 0.0 | 0.00 | 0.00 | 0.00 | 85 | 1016.7 | |
| 20260506093531 | 53 | 296 | 0.9 | 2.6 | 0.00 | 0.00 | 0.00 | 88 | 1017.0 |
| 20260506092540 | 53 | 0.0 | 0.0 | 0.00 | 0.00 | 0.00 | 88 | 1017.0 | |
| 20260506091552 | 54 | 0.0 | 0.0 | 0.00 | 0.00 | 0.00 | 86 | 1016.9 | |
| 20260506090524 | 54 | 0.0 | 0.0 | 0.00 | 0.00 | 0.00 | 86 | 1016.8 | |
| 20260506085533 | 55 | 0.0 | 0.0 | 0.00 | 0.00 | 0.00 | 85 | 1016.8 | |
| 20260506084524 | 55 | 266 | 0.0 | 4.3 | 0.00 | 0.00 | 0.00 | 84 | 1016.7 |
| 20260506083646 | 54 | 239 | 0.0 | 2.6 | 0.00 | 0.00 | 0.00 | 85 | 1016.6 |
| 20260506083532 | 54 | 239 | 0.0 | 2.6 | 0.00 | 0.00 | 0.00 | 85 | 1016.7 |
| 20260506082523 | 54 | 0.0 | 0.0 | 0.00 | 0.00 | 0.00 | 84 | 1016.6 | |
| 20260506081533 | 55 | 0.0 | 0.0 | 0.00 | 0.00 | 0.00 | 82 | 1016.6 | |
| 20260506080524 | 56 | 165 | 0.0 | 2.6 | 0.00 | 0.00 | 0.00 | 82 | 1016.6 |
| 20260506072524 | 57 | 0.0 | 0.0 | 0.00 | 0.00 | 0.00 | 78 | 1016.4 | |
| 20260506071531 | 57 | 260 | 0.9 | 4.3 | 0.00 | 0.00 | 0.00 | 78 | 1016.3 |
| 20260506070605 | 58 | 0.0 | 0.0 | 0.00 | 0.00 | 0.00 | 78 | 1016.3 | |
| 20260506061516 | 59 | 206 | 0.9 | 7.0 | 0.00 | 0.00 | 0.00 | 75 | 1015.8 |
| 20260506060524 | 59 | 189 | 1.7 | 7.0 | 0.00 | 0.00 | 0.00 | 74 | 1015.6 |
| 20260506050524 | 61 | 176 | 1.7 | 8.7 | 0.00 | 0.00 | 0.00 | 70 | 1015.3 |
| 20260506044523 | 61 | 223 | 0.9 | 4.3 | 0.00 | 0.00 | 0.00 | 69 | 1015.2 |
| 20260506043646 | 59 | 0.0 | 0.0 | 0.00 | 0.00 | 0.00 | 74 | 1011.6 | |
| 20260506043517 | 62 | 253 | 0.9 | 7.0 | 0.00 | 0.00 | 0.00 | 68 | 1015.1 |
| 20260506042524 | 62 | 205 | 1.7 | 7.0 | 0.00 | 0.00 | 0.00 | 68 | 1015.0 |
| 20260506041535 | 62 | 195 | 2.6 | 8.7 | 0.00 | 0.00 | 0.00 | 67 | 1014.9 |
| 20260506040524 | 62 | 196 | 2.6 | 8.7 | 0.00 | 0.00 | 0.00 | 66 | 1014.8 |
| 20260506035516 | 63 | 255 | 3.5 | 11.3 | 0.00 | 0.00 | 0.00 | 65 | 1014.6 |
| 20260506034524 | 63 | 263 | 7.0 | 13.0 | 0.00 | 0.00 | 0.00 | 66 | 1014.5 |
| 20260506033646 | 59 | 0.0 | 0.0 | 0.00 | 0.00 | 0.00 | 74 | 1011.6 | |
| 20260506033537 | 63 | 266 | 4.3 | 15.6 | 0.00 | 0.00 | 0.00 | 67 | 1014.4 |
| 20260506032544 | 64 | 254 | 4.3 | 11.3 | 0.00 | 0.00 | 0.00 | 65 | 1014.2 |
| 20260506031515 | 64 | 255 | 3.5 | 17.4 | 0.00 | 0.00 | 0.00 | 65 | 1014.1 |
| 20260506030525 | 65 | 233 | 4.3 | 13.0 | 0.00 | 0.00 | 0.00 | 65 | 1014.1 |
| 20260506025516 | 66 | 249 | 4.3 | 17.4 | 0.00 | 0.00 | 0.00 | 63 | 1014.0 |
| 20260506024524 | 67 | 243 | 4.3 | 21.7 | 0.00 | 0.00 | 0.00 | 62 | 1013.9 |
| 20260506023644 | 59 | 0.0 | 0.0 | 0.00 | 0.00 | 0.00 | 74 | 1011.6 | |
| 20260506023515 | 67 | 250 | 6.1 | 15.6 | 0.00 | 0.00 | 0.00 | 61 | 1013.9 |
| 20260506022525 | 68 | 248 | 9.6 | 20.0 | 0.00 | 0.00 | 0.00 | 60 | 1013.8 |
| 20260506021516 | 68 | 231 | 6.1 | 13.0 | 0.00 | 0.00 | 0.00 | 60 | 1013.7 |
| 20260506020524 | 68 | 189 | 4.3 | 13.0 | 0.00 | 0.00 | 0.00 | 60 | 1013.8 |
| 20260506015517 | 69 | 226 | 7.0 | 24.3 | 0.00 | 0.00 | 0.00 | 58 | 1013.7 |
| 20260506014524 | 70 | 246 | 3.5 | 13.0 | 0.00 | 0.00 | 0.00 | 57 | 1013.6 |
| 20260506013647 | 59 | 0.0 | 0.0 | 0.00 | 0.00 | 0.00 | 74 | 1011.6 | |
| 20260506013536 | 70 | 229 | 6.1 | 13.0 | 0.00 | 0.00 | 0.00 | 55 | 1013.6 |
| 20260506012541 | 71 | 242 | 5.2 | 11.3 | 0.00 | 0.00 | 0.00 | 54 | 1013.5 |
| 20260506011517 | 71 | 241 | 5.2 | 17.4 | 0.00 | 0.00 | 0.00 | 53 | 1013.5 |
| 20260506010524 | 71 | 245 | 5.2 | 15.6 | 0.00 | 0.00 | 0.00 | 52 | 1013.5 |
| 20260506005535 | 71 | 260 | 6.1 | 20.0 | 0.00 | 0.00 | 0.00 | 53 | 1013.5 |
| 20260506004525 | 71 | 262 | 7.8 | 20.0 | 0.00 | 0.00 | 0.00 | 51 | 1013.5 |
| 20260506003652 | 59 | 0.0 | 0.0 | 0.00 | 0.00 | 0.00 | 74 | 1011.6 | |
| 20260506003536 | 72 | 264 | 5.2 | 13.0 | 0.00 | 0.00 | 0.00 | 50 | 1013.5 |
| 20260506002523 | 72 | 236 | 7.8 | 17.4 | 0.00 | 0.00 | 0.00 | 51 | 1013.6 |
| 20260506001537 | 72 | 216 | 8.7 | 20.0 | 0.00 | 0.00 | 0.00 | 50 | 1013.6 |
| 20260506000524 | 73 | 230 | 6.1 | 13.0 | 0.00 | 0.00 | 0.00 | 49 | 1013.7 |
| 20260505235535 | 73 | 249 | 5.2 | 11.3 | 0.00 | 0.00 | 0.00 | 49 | 1013.8 |
| 20260505234525 | 73 | 227 | 7.0 | 17.4 | 0.00 | 0.00 | 0.00 | 49 | 1013.8 |
| 20260505233645 | 59 | 0.0 | 0.0 | 0.00 | 0.00 | 0.00 | 74 | 1011.6 | |
| 20260505233516 | 72 | 227 | 7.0 | 20.0 | 0.00 | 0.00 | 0.00 | 49 | 1013.9 |
| 20260505232544 | 73 | 213 | 10.4 | 24.3 | 0.00 | 0.00 | 0.00 | 50 | 1013.9 |
| 20260505231515 | 73 | 227 | 8.7 | 28.7 | 0.00 | 0.00 | 0.00 | 50 | 1014.0 |
| 20260505230545 | 73 | 218 | 6.1 | 17.4 | 0.00 | 0.00 | 0.00 | 51 | 1014.1 |
| 20260505225556 | 73 | 247 | 7.0 | 20.0 | 0.00 | 0.00 | 0.00 | 51 | 1014.3 |
| 20260505224539 | 73 | 229 | 8.7 | 21.7 | 0.00 | 0.00 | 0.00 | 52 | 1014.3 |
| 20260505223647 | 59 | 0.0 | 0.0 | 0.00 | 0.00 | 0.00 | 74 | 1011.6 | |
| 20260505223517 | 73 | 222 | 6.1 | 15.6 | 0.00 | 0.00 | 0.00 | 52 | 1014.3 |